Hourly Data Report for October 02, 2017

All times are specified in Local Standard Time (LST). Add 1 hour to adjust for Daylight Saving Time where and when it is observed.

SATURNA ISLAND CS
BRITISH COLUMBIA

48°47'02.067" N
123°02'41.082" W
24.40 m
1017101
71473
WEZ

Download Data

Hourly Data (October 2017)
Hourly Data Report for October 2, 2017
Temp Definition
°C
Dew Point Temp Definition
°C
Rel Hum Definition
%
Wind Dir Definition
10's deg

Wind Spd Definition
km/h
Visibility Definition
km
Stn Press Definition
kPa
Hmdx Definition


Wind Chill Definition


Weather Definition


TIME
00:00 11.0 8.4 84 23 10   101.71     LegendNANA
01:00 10.6 8.5 87 23 12   101.71     LegendNANA
02:00 10.9 8.9 88 22 6   101.72     LegendNANA
03:00 11.0 9.2 89 6 14   101.74     LegendNANA
04:00 10.6 8.9 90 35 6   101.77     LegendNANA
05:00 10.7 9.1 90 36 12   101.81     LegendNANA
06:00 10.7 8.7 87 33 6   101.80     LegendNANA
07:00 11.3 9.1 86 32 6   101.81     LegendNANA
08:00 11.9 9.6 86 34 10   101.84     LegendNANA
09:00 12.2 9.7 85 34 10   101.86     LegendNANA
10:00 13.4 9.8 79 32 12   101.88     LegendNANA
11:00 14.1 9.6 74 30 10   101.89     LegendNANA
12:00 14.6 9.1 70 30 10   101.91     LegendNANA
13:00 14.9 9.1 68 29 6   101.90     LegendNANA
14:00 14.9 8.5 66 30 11   101.89     LegendNANA
15:00 15.1 8.2 63 27 7   101.90     LegendNANA
16:00 14.0 8.1 67 30 9   101.91     LegendNANA
17:00 13.8 9.3 74 27 8   101.94     LegendNANA
18:00 13.7 8.4 70 29 7   101.97     LegendNANA
19:00 13.7 8.3 70 31 8   102.01     LegendNANA
20:00 13.7 5.8 59 29 4   102.07     LegendNANA
21:00 13.7 5.3 57 29 2   102.11     LegendNANA
22:00 13.4 6.2 62 22 2   102.14     LegendNANA
23:00 13.8 6.2 60 36 16   102.16     LegendNANA

Notes on Data Quality.

Legend

  • E = Estimated
  • M = Missing
  • NA = Not Available
  • ‡ = Partner data that is not subject to review by the National Climate Archives
Date modified: